Tacoma, WA
on Saturday, November 17, 2012

Saturday
Previous Day Next Day
Daily Summary
 ActualAverage (KSEA)Record (KSEA)
Temperature
Mean Temperature °F 45°F  
Max Temperature 57°F 51°F 61°F (1965)
Min Temperature 39°F 40°F 23°F (1955)
Degree Days
Heating Degree Days 17 20  
Month to date heating degree days 308  
Since 1 July heating degree days 905  
Cooling Degree Days 0 0  
Month to date cooling degree days 0  
Year to date cooling degree days 189  
Moisture
Dew Point 44°F   
Average Humidity 91    
Maximum Humidity 100    
Minimum Humidity 63    
Precipitation
Precipitation 0.33 in 0.23 in 1.06 in (1982)
Month to date precipitation 3.65  
Year to date precipitation 29.22  
Snow
Snow 0.00 in in 4.60 in (1955)
Month to date snowfall  
Since 1 July snowfall  
Snow Depth in   
Wind
Wind Speed 5 mph   
Max Wind Speed 17 mph   
Max Gust Speed 23 mph   
Visibility 7 miles   
Events Rain   

Key: T is trace of precipitation, MM is missing value
Source: NWS Daily Summary
Time(PST)TemperatureDew PointHumidity Pressure Visibility Wind DirectionWind SpeedGust SpeedPrecipitationEvents Conditions
12:00 AM 46.4°F 44.6°F 93% 29.69 in 6.0 miles East 3.5 mph - N/A   Mostly Cloudy
12:22 AM 44.6°F 44.6°F 100% 29.68 in 6.0 miles SE 1.2 mph - N/A Rain Light Rain
12:33 AM 46.4°F 44.6°F 93% 29.68 in 7.0 miles West 2.3 mph - N/A   Mostly Cloudy
12:58 AM 45.5°F 45.3°F 99% 29.69 in 6.0 miles Calm Calm - 0.00 in   Mostly Cloudy
1:22 AM 46.4°F 46.4°F 100% 29.66 in 7.0 miles Variable 3.5 mph - N/A Rain Light Rain
1:29 AM 46.4°F 46.4°F 100% 29.66 in 8.0 miles Calm Calm - N/A   Overcast
1:34 AM 46.4°F 46.4°F 100% 29.66 in 9.0 miles Calm Calm - N/A Rain Light Rain
1:53 AM 44.6°F 44.6°F 100% 29.64 in 6.0 miles Calm Calm - N/A   Mostly Cloudy
1:58 AM 45.3°F 45.1°F 99% 29.66 in 6.0 miles Calm Calm - 0.01 in   Mostly Cloudy
2:23 AM 44.6°F 44.6°F 100% 29.63 in 2.0 miles SE 1.2 mph - N/A   Partly Cloudy
2:28 AM 44.6°F 44.6°F 100% 29.63 in 1.8 miles Calm Calm - N/A   Scattered Clouds
2:33 AM 44.6°F 44.6°F 100% 29.63 in 2.5 miles Calm Calm - N/A   Mostly Cloudy
2:38 AM 44.6°F 44.6°F 100% 29.62 in 2.0 miles Calm Calm - N/A   Scattered Clouds
2:43 AM 44.6°F 44.6°F 100% 29.62 in 1.8 miles Calm Calm - N/A   Partly Cloudy
2:48 AM 44.6°F 44.6°F 100% 29.62 in 2.5 miles Calm Calm - N/A   Partly Cloudy
2:53 AM 44.6°F 44.6°F 100% 29.61 in 4.0 miles Calm Calm - N/A   Partly Cloudy
2:58 AM 44.6°F 44.4°F 99% 29.63 in 5.0 miles Calm Calm - N/A   Partly Cloudy
3:28 AM 44.6°F 44.6°F 100% 29.60 in 2.0 miles NNE 2.3 mph - N/A   Mostly Cloudy
3:38 AM 44.6°F 44.6°F 100% 29.60 in 5.0 miles NE 2.3 mph - N/A   Overcast
3:58 AM 44.4°F 44.2°F 99% 29.61 in 7.0 miles Calm Calm - N/A   Overcast
4:33 AM 44.6°F 44.6°F 100% 29.59 in 2.0 miles ENE 1.2 mph - N/A   Mostly Cloudy
4:38 AM 44.6°F 44.6°F 100% 29.59 in 2.5 miles SSE 2.3 mph - N/A   Mostly Cloudy
4:43 AM 42.8°F 42.8°F 100% 29.58 in 3.0 miles ESE 1.2 mph - N/A   Mostly Cloudy
4:58 AM 43.7°F 43.3°F 99% 29.60 in 4.0 miles SSE 2.3 mph - N/A   Mostly Cloudy
5:58 AM 44.4°F 44.2°F 99% 29.59 in 8.0 miles South 5.8 mph - N/A   Mostly Cloudy
6:18 AM 48.2°F 46.4°F 93% 29.56 in 3.0 miles SSE 9.2 mph - N/A   Mostly Cloudy
6:33 AM 51.8°F 44.6°F 76% 29.56 in 3.0 miles SSE 12.7 mph - N/A   Haze
6:43 AM 51.8°F 44.6°F 76% 29.56 in 3.0 miles South 10.4 mph - N/A   Haze
6:53 AM 51.8°F 44.6°F 76% 29.55 in 3.0 miles SSE 8.1 mph - N/A   Haze
6:58 AM 52.0°F 44.8°F 76% 29.57 in 3.0 miles SSE 6.9 mph - N/A   Haze
7:23 AM 51.8°F 42.8°F 71% 29.54 in 2.5 miles South 5.8 mph - N/A   Haze
7:33 AM 51.8°F 44.6°F 76% 29.54 in 4.0 miles South 4.6 mph - N/A   Haze
7:58 AM 52.7°F 43.9°F 72% 29.56 in 5.0 miles South 5.8 mph - N/A   Haze
8:13 AM 53.6°F 44.6°F 72% 29.53 in 2.5 miles South 5.8 mph - N/A   Haze
8:58 AM 55.0°F 44.6°F 68% 29.54 in 2.5 miles South 8.1 mph - N/A   Haze
9:03 AM 55.4°F 44.6°F 67% 29.52 in 3.0 miles South 10.4 mph - N/A   Haze
9:18 AM 55.4°F 44.6°F 67% 29.51 in 2.5 miles SSE 9.2 mph - N/A   Haze
9:38 AM 55.4°F 44.6°F 67% 29.50 in 3.0 miles South 9.2 mph - N/A   Haze
9:58 AM 56.5°F 45.1°F 66% 29.50 in 10.0 miles SSE 10.4 mph 21.9 mph N/A   Overcast
10:58 AM 57.2°F 44.6°F 63% 29.50 in 10.0 miles SSE 12.7 mph 20.7 mph N/A   Mostly Cloudy
11:11 AM 57.2°F 46.4°F 67% 29.50 in 10.0 miles WSW 16.1 mph - N/A   Overcast
11:12 AM 55.4°F 46.4°F 72% 29.51 in 10.0 miles West 17.3 mph - N/A Rain Light Rain
11:32 AM 50.0°F 48.2°F 94% 29.52 in 3.0 miles West 8.1 mph 21.9 mph N/A Rain Rain
11:35 AM 50.0°F 48.2°F 94% 29.53 in 3.0 miles West 5.8 mph 20.7 mph N/A Rain Rain
11:45 AM 48.2°F 48.2°F 100% 29.53 in 5.0 miles West 9.2 mph - N/A Rain Light Rain
11:50 AM 48.2°F 48.2°F 100% 29.53 in 7.0 miles West 9.2 mph - N/A Rain Light Rain
11:55 AM 48.2°F 48.2°F 100% 29.54 in 9.0 miles WSW 10.4 mph - N/A Rain Light Rain
11:58 AM 48.4°F 48.2°F 99% 29.56 in 8.0 miles WSW 10.4 mph - 0.06 in Rain Light Rain
12:27 PM 48.2°F 46.4°F 93% 29.55 in 10.0 miles SW 12.7 mph - N/A   Overcast
12:46 PM 46.4°F 46.4°F 100% 29.56 in 10.0 miles SW 8.1 mph - N/A Rain Light Rain
12:51 PM 46.4°F 46.4°F 100% 29.57 in 10.0 miles SW 8.1 mph - N/A Rain Light Rain
12:58 PM 46.4°F 45.7°F 97% 29.59 in 10.0 miles SW 9.2 mph - 0.07 in Rain Light Rain
1:48 PM - - N/A% 29.61 in 10.0 miles SW 10.4 mph - N/A Rain Light Rain
1:55 PM 45.1°F 44.2°F 97% 29.60 in 10.0 miles SW 9.2 mph - 0.06 in   Overcast
2:55 PM 44.6°F 43.3°F 95% 29.62 in 10.0 miles SSW 10.4 mph - 0.04 in Rain Light Rain
3:55 PM 43.3°F 41.9°F 95% 29.64 in 10.0 miles South 10.4 mph - 0.04 in Rain Light Rain
3:56 PM 42.8°F 41.0°F 93% 29.63 in 10.0 miles South 9.2 mph - N/A Rain Light Rain
4:55 PM 43.0°F 41.7°F 95% 29.65 in 10.0 miles South 6.9 mph - 0.00 in   Overcast
5:55 PM 43.2°F 41.5°F 94% 29.66 in 10.0 miles SSE 8.1 mph - N/A   Mostly Cloudy
6:01 PM 42.8°F 41.0°F 93% 29.66 in 10.0 miles South 8.1 mph - N/A Rain Light Rain
6:10 PM 42.8°F 41.0°F 93% 29.66 in 10.0 miles South 6.9 mph - N/A   Mostly Cloudy
6:55 PM 41.2°F 39.9°F 95% 29.66 in 10.0 miles South 5.8 mph - 0.00 in   Clear
7:55 PM 39.6°F 38.8°F 97% 29.67 in 10.0 miles South 9.2 mph - N/A   Partly Cloudy
7:56 PM 39.2°F 39.2°F 100% 29.66 in 10.0 miles South 9.2 mph - N/A   Partly Cloudy
8:31 PM 42.8°F 39.2°F 87% 29.68 in 10.0 miles SSW 6.9 mph - N/A Rain Light Rain
8:55 PM 41.9°F 40.6°F 95% 29.69 in 10.0 miles SSE 5.8 mph - 0.01 in Rain Light Rain
9:06 PM 42.8°F 41.0°F 93% 29.69 in 10.0 miles South 5.8 mph - N/A Rain Light Rain
9:22 PM 41.0°F 41.0°F 100% 29.70 in 10.0 miles South 5.8 mph - N/A   Overcast
9:41 PM 42.8°F 41.0°F 93% 29.71 in 10.0 miles SW 12.7 mph - N/A Rain Light Rain
9:55 PM 42.8°F 40.8°F 93% 29.71 in 10.0 miles North - - 0.03 in   Overcast
10:20 PM 42.8°F 41.0°F 93% 29.71 in 10.0 miles SSW 6.9 mph - N/A   Overcast
10:55 PM 41.9°F 41.5°F 99% 29.72 in 10.0 miles South 11.5 mph - 0.01 in   Mostly Cloudy
11:10 PM 42.8°F 41.0°F 93% 29.73 in 10.0 miles South 11.5 mph - N/A Rain Light Rain
11:27 PM 42.8°F 41.0°F 93% 29.74 in 10.0 miles SSW 10.4 mph 23.0 mph N/A   Overcast
11:55 PM 42.1°F 40.3°F 93% 29.74 in 10.0 miles South 8.1 mph - 0.00 in   Partly Cloudy
Moon Phase
Nov. 17 Nov. 20 Nov. 28 Dec. 06 Dec. 13
Sunrise:07:17 AM (PST) Moon Rise:11:06 AM (PST)11/17
Sunset:04:32 PM (PST) Moon Set:08:49 PM (PST)11/17

Copyright © 2014 The Weather Underground, Inc.